Location: Winthrop
(48.4780°N, 120.1850°W)
Time: 22:44:34
(UTC-07:00)

S-56A Canister/Altair - Pass Details

Date: 09 June 2023
Orbit: 640 x 2489 km, 38.9° (Epoch: 29 September)

Event Time Altitude Azimuth Distance (km) Brightness Sun altitude
Rises 01:34:58 0° 278° (W) 5,919 12.1 -18.2°
Reaches altitude 10° 01:39:02 10° 272° (W) 5,039 11.6 -18.1°
Maximum altitude 01:52:01 39° 211° (SSW) 3,329 10.2 -17.7°
Drops below altitude 10° 02:04:17 10° 150° (SSE) 4,742 11.1 -17.2°
Sets 02:08:01 0° 143° (SE) 5,546 11.6 -17.0°
